Starlink 3673

operational
NORAD ID: 52093 Int'l Des: 2022-029 Owner: SPXS Country: US Constellation: starlink
LEOCIRCULAR

关于 Starlink 3673

正在加载描述...

实时位置

正在加载3D地球...

即将过境

高度历史

Altitude vs Time

uPlot chart will show altitude changes over time

两行轨道根数

1 52093U 22029F 25352.59640393 .00002030 00000-0 14559-3 0 9992
2 52093 53.2182 93.1727 0000759 71.8316 288.2759 15.08835855208412
Epoch: Dec 18, 2025 • Age: 7 hours

当前状态

高度 540.0 km
速度 7.60 km/s
星下点 17.30°N, 149.85°W
发射日期 Mar 19, 2022
运行时间 3.7 years
类型 internet

技术详情

分类 Payload
质量 297.00 kg
干质量 275.00 kg
总质量 297.00 kg
长度 0.20 m
直径 2.80 m
跨度 9.00 m
形状 Box + pan
制造商 SPXS
平台类型 Starlink
阶段状态 In Orbit
所有者/国家 SPXS/US

大型星座

Loading constellations...